Location: Unspecified
(0.0000°N, 0.0000°E)
Time: 05:31:45
(UTC+00:00)

Tiangong 2 - Pass Details

Date: 22 April 2017
Orbit: 380 x 389 km, 42.8° (Epoch: 22 April)

Event Time Altitude Azimuth Distance (km) Brightness Sun altitude
Rises 18:41:27 0° 339° (NNW) 2,251 5.5 -10.5°
Reaches altitude 10° 18:43:59 10° 0° (N) 1,399 4.1 -11.1°
Maximum altitude 18:46:11 17° 45° (NE) 1,043 2.9 -11.7°
Enters shadow 18:47:11 15° 68° (ENE) 1,125 2.9 -11.9°
